Boise Air Terminal/Gowen field
KBOI : now visible

Airfield :











YOU CAN JOIN US ON...

 
LOGIN :

Register | Disclaimer

   EN    FR    IT 

 









Legend :    VFR   Marginal VFR   IFR   Intensive IFR   Very Intensive IFR
Visi :
Ceiling :
>= 8 km
>= 3000ft
5 to 8 km
1000 to 3000 ft
1500m to 5 km
500 to 1000 ft
800 to 1500m
200 to 500 ft
< 800m
< 200 ft
Symbols :   Thunderstorms  Fog  Heavy snow  Heavy precipitations  Wind > 20 kt






- Airport Elevation : 2871 ft
- IATA code : BOI


KBOI - Boise Air Terminal/Gowen field

CURRENT METAR :
  • 230653Z 32007KT 1/2SM R10R/P6000FT BR OVC002 01/00 A2981 RMK AO2 SFC VIS 5 SLP108 T00060000 400330000

EXPIRED METARs :
  • 230553Z 31004KT 1/2SM R10R/P6000FT BR OVC002 01/01 A2980 RMK AO2 SFC VIS 4 SLP108 T00060006 10028 20000 53002

TAF KBOI
Valid from the 23 at 06:00 until the 24 at 06:00 UTC


230520Z 2306/2406 33005KT 2SM BR VV002
FM231400 31007KT P6SM BKN020
FM231800 31012KT P6SM SKC
FM240000 31006KT P6SM SKC
KZLC FIR / North America



MET'MAP, your aeronautical weather chart ! - Copyright ORBIFLY December 2007 - Disclaimer

ORBIFLY MET'MAP TEAM :

Programming & Development : Alexandra Zaïnal
Concept & original design : Baudouin d'Aumeries
Assistance for programming : Marc-Olivier Méhu
Technical & hardware support : Manuel Goepfert

Contact : metmap@orbifly.com




SOURCES & CREDITS :

   NOAA       Earth
Advisory